• In Czech Republic
  • List of Countries
  • For 7 days
  • Water Temperature
  • Satellite Maps
  • Weather Map
  • Weather Widgets
  • user-avatar
    Login

    Hourly Weather Shahovka

    Today, 23 September, Sunday

    Time Temperature Precipitation Wind Pressure Humidity
    00:00 +17°C° 0 mm 4 mps 750 mmHg 69%
    01:00 +17°C° 0 mm 4 mps 749 mmHg 69%
    02:00 +17°C° 0 mm 4 mps 749 mmHg 69%
    03:00 +15°C° 0 mm 4 mps 749 mmHg 69%
    04:00 +15°C° 0 mm 5 mps 748 mmHg 70%
    05:00 +15°C° 0 mm 5 mps 748 mmHg 70%
    06:00 +15°C° 0 mm 5 mps 747 mmHg 71%
    07:00 +16°C° 0 mm 6 mps 747 mmHg 67%
    08:00 +17°C° 0 mm 7 mps 746 mmHg 63%
    09:00 +18°C° 0 mm 7 mps 746 mmHg 59%
    10:00 +21°C° 0 mm 8 mps 745 mmHg 54%
    11:00 +23°C° 0 mm 8 mps 745 mmHg 50%
    12:00 +24°C° 0 mm 8 mps 745 mmHg 45%
    13:00 +23°C° 0 mm 8 mps 745 mmHg 49%
    14:00 +22°C° 0 mm 7 mps 745 mmHg 53%
    15:00 +21°C° 0 mm 7 mps 745 mmHg 58%
    16:00 +17°C° 0.7 mm 6 mps 745 mmHg 66%
    17:00 +15°C° 0.7 mm 6 mps 745 mmHg 75%
    18:00 +12°C° 0.7 mm 5 mps 745 mmHg 83%
    19:00 +12°C° 2.2 mm 4 mps 745 mmHg 84%
    20:00 +11°C° 2.2 mm 4 mps 745 mmHg 85%
    21:00 +11°C° 2.2 mm 3 mps 746 mmHg 86%
    22:00 +10°C° 0.3 mm 3 mps 746 mmHg 87%
    23:00 +10°C° 0.3 mm 3 mps 746 mmHg 87%

    Tomorrow, 24 September, Monday

    Time Temperature Precipitation Wind Pressure Humidity
    00:00 +10°C° 0.3 mm 3 mps 747 mmHg 88%
    01:00 +10°C° 0 mm 3 mps 747 mmHg 89%
    02:00 +9°C° 0 mm 3 mps 747 mmHg 90%
    03:00 +9°C° 0 mm 3 mps 747 mmHg 91%
    04:00 +9°C° 0 mm 3 mps 747 mmHg 91%
    05:00 +8°C° 0 mm 3 mps 748 mmHg 92%
    06:00 +8°C° 0 mm 2 mps 748 mmHg 92%
    07:00 +9°C° 0 mm 3 mps 748 mmHg 87%
    08:00 +11°C° 0 mm 3 mps 748 mmHg 81%
    09:00 +12°C° 0 mm 3 mps 748 mmHg 76%
    10:00 +13°C° 0 mm 3 mps 748 mmHg 68%
    11:00 +16°C° 0 mm 3 mps 748 mmHg 61%
    12:00 +17°C° 0 mm 4 mps 747 mmHg 54%
    13:00 +17°C° 0 mm 4 mps 747 mmHg 53%
    14:00 +16°C° 0 mm 5 mps 746 mmHg 53%
    15:00 +16°C° 0 mm 5 mps 746 mmHg 52%
    16:00 +15°C° 0.1 mm 5 mps 745 mmHg 56%
    17:00 +15°C° 0.1 mm 5 mps 745 mmHg 60%
    18:00 +14°C° 0.1 mm 5 mps 744 mmHg 63%
    19:00 +14°C° 0.4 mm 6 mps 743 mmHg 65%
    20:00 +12°C° 0.4 mm 7 mps 743 mmHg 66%
    21:00 +12°C° 0.4 mm 8 mps 742 mmHg 67%
    22:00 +12°C° 0.5 mm 8 mps 741 mmHg 67%
    23:00 +12°C° 0.5 mm 9 mps 740 mmHg 68%

    Day after tomorrow, 25 September, Tuesday

    Time Temperature Precipitation Wind Pressure Humidity
    00:00 +12°C° 0.5 mm 9 mps 740 mmHg 68%
    01:00 +12°C° 1 mm 9 mps 739 mmHg 72%
    02:00 +11°C° 1 mm 9 mps 739 mmHg 76%
    03:00 +11°C° 1 mm 8 mps 739 mmHg 79%
    04:00 +11°C° 0.3 mm 7 mps 739 mmHg 80%
    05:00 +10°C° 0.3 mm 7 mps 738 mmHg 81%
    06:00 +10°C° 0.3 mm 6 mps 738 mmHg 81%
    07:00 +10°C° 0 mm 6 mps 739 mmHg 79%
    08:00 +10°C° 0 mm 6 mps 739 mmHg 77%
    09:00 +10°C° 0 mm 7 mps 740 mmHg 75%
    10:00 +10°C° 0 mm 7 mps 740 mmHg 73%
    11:00 +10°C° 0 mm 7 mps 741 mmHg 72%
    12:00 +10°C° 0 mm 7 mps 741 mmHg 70%
    13:00 +10°C° 0 mm 7 mps 741 mmHg 69%
    14:00 +10°C° 0 mm 7 mps 742 mmHg 68%
    15:00 +10°C° 0 mm 7 mps 742 mmHg 66%
    16:00 +10°C° 0 mm 7 mps 743 mmHg 67%
    17:00 +9°C° 0 mm 6 mps 743 mmHg 68%
    18:00 +9°C° 0 mm 6 mps 744 mmHg 69%
    19:00 +8°C° 0 mm 5 mps 744 mmHg 70%
    20:00 +8°C° 0 mm 5 mps 745 mmHg 71%
    21:00 +7°C° 0 mm 5 mps 745 mmHg 72%
    22:00 +7°C° 0 mm 5 mps 746 mmHg 74%
    23:00 +6°C° 0 mm 5 mps 746 mmHg 75%

    26 September, Wednesday

    Time Temperature Precipitation Wind Pressure Humidity
    00:00 +6°C° 0 mm 5 mps 746 mmHg 77%
    01:00 +5°C° 0 mm 5 mps 747 mmHg 77%
    02:00 +5°C° 0 mm 4 mps 747 mmHg 78%
    03:00 +5°C° 0 mm 4 mps 748 mmHg 79%
    04:00 +4°C° 0 mm 4 mps 748 mmHg 80%
    05:00 +4°C° 0 mm 4 mps 749 mmHg 81%
    06:00 +4°C° 0 mm 4 mps 749 mmHg 82%
    07:00 +5°C° 0 mm 5 mps 750 mmHg 77%
    08:00 +6°C° 0 mm 5 mps 750 mmHg 71%
    09:00 +7°C° 0 mm 6 mps 751 mmHg 66%
    10:00 +7°C° 0 mm 6 mps 751 mmHg 62%
    11:00 +8°C° 0 mm 6 mps 752 mmHg 58%
    12:00 +8°C° 0 mm 6 mps 752 mmHg 54%
    13:00 +8°C° 0 mm 6 mps 752 mmHg 51%
    14:00 +9°C° 0 mm 6 mps 753 mmHg 48%
    15:00 +9°C° 0 mm 6 mps 753 mmHg 45%
    16:00 +8°C° 0 mm 5 mps 753 mmHg 48%
    17:00 +7°C° 0 mm 4 mps 753 mmHg 52%
    18:00 +8°C° 0 mm 3 mps 753 mmHg 55%
    19:00 +7°C° 0 mm 3 mps 753 mmHg 57%
    20:00 +6°C° 0 mm 4 mps 753 mmHg 59%
    21:00 +5°C° 0 mm 4 mps 753 mmHg 61%
    22:00 +5°C° 0 mm 4 mps 753 mmHg 61%
    23:00 +6°C° 0 mm 5 mps 753 mmHg 61%

    27 September, Thursday

    Time Temperature Precipitation Wind Pressure Humidity
    00:00 +6°C° 0 mm 5 mps 753 mmHg 62%
    01:00 +5°C° 0 mm 5 mps 752 mmHg 64%
    02:00 +5°C° 0 mm 5 mps 752 mmHg 65%
    03:00 +4°C° 0 mm 6 mps 751 mmHg 67%
    04:00 +4°C° 0.1 mm 6 mps 751 mmHg 68%
    05:00 +4°C° 0.1 mm 7 mps 750 mmHg 69%
    06:00 +5°C° 0.1 mm 7 mps 750 mmHg 69%
    07:00 +5°C° 0.3 mm 8 mps 749 mmHg 70%
    08:00 +5°C° 0.3 mm 9 mps 749 mmHg 70%
    09:00 +5°C° 0.3 mm 9 mps 748 mmHg 70%
    10:00 +6°C° 0.3 mm 9 mps 748 mmHg 70%
    11:00 +6°C° 0.3 mm 10 mps 748 mmHg 70%
    12:00 +7°C° 0.3 mm 10 mps 747 mmHg 69%
    13:00 +7°C° 0.1 mm 9 mps 747 mmHg 68%
    14:00 +8°C° 0.1 mm 9 mps 746 mmHg 66%
    15:00 +10°C° 0.1 mm 9 mps 746 mmHg 65%
    16:00 +9°C° 0.3 mm 8 mps 746 mmHg 68%
    17:00 +9°C° 0.3 mm 7 mps 745 mmHg 72%
    18:00 +9°C° 0.3 mm 7 mps 745 mmHg 75%
    19:00 +9°C° 0.3 mm 7 mps 745 mmHg 75%
    20:00 +9°C° 0.3 mm 7 mps 744 mmHg 75%
    21:00 +9°C° 0.3 mm 8 mps 744 mmHg 75%
    22:00 +9°C° 0 mm 8 mps 744 mmHg 74%
    23:00 +10°C° 0 mm 8 mps 743 mmHg 74%

    28 September, Friday

    Time Temperature Precipitation Wind Pressure Humidity
    00:00 +10°C° 0 mm 8 mps 743 mmHg 74%
    01:00 +10°C° 0 mm 8 mps 743 mmHg 74%
    02:00 +11°C° 0 mm 8 mps 742 mmHg 75%
    03:00 +11°C° 0 mm 8 mps 742 mmHg 75%
    04:00 +11°C° 0 mm 8 mps 742 mmHg 77%
    05:00 +10°C° 0 mm 8 mps 742 mmHg 79%
    06:00 +10°C° 0 mm 8 mps 742 mmHg 81%
    07:00 +10°C° 0 mm 7 mps 743 mmHg 79%
    08:00 +11°C° 0 mm 7 mps 743 mmHg 77%
    09:00 +11°C° 0 mm 7 mps 743 mmHg 75%
    10:00 +12°C° 0.1 mm 7 mps 743 mmHg 71%
    11:00 +12°C° 0.1 mm 7 mps 744 mmHg 67%
    12:00 +14°C° 0.1 mm 7 mps 744 mmHg 63%
    13:00 +14°C° 0 mm 6 mps 744 mmHg 61%
    14:00 +14°C° 0 mm 6 mps 744 mmHg 60%
    15:00 +15°C° 0 mm 6 mps 744 mmHg 58%
    16:00 +14°C° 0 mm 5 mps 744 mmHg 62%
    17:00 +13°C° 0 mm 4 mps 744 mmHg 66%
    18:00 +13°C° 0 mm 3 mps 743 mmHg 70%
    19:00 +12°C° 1.5 mm 3 mps 743 mmHg 75%
    20:00 +11°C° 1.5 mm 3 mps 743 mmHg 81%
    21:00 +11°C° 1.5 mm 4 mps 743 mmHg 87%
    22:00 +10°C° 0.2 mm 4 mps 744 mmHg 86%
    23:00 +10°C° 0.2 mm 4 mps 744 mmHg 86%
    Show more